Ogdensburg, NY

3:41 PM EDT on June 22, 2018 (GMT -0400)
Ogdensburg International

Weather History for KOGS - December, 2017

Change the Weather History Date:

Thursday, December 7, 2017

  Actual Average Record
Temperature  
Mean Temperature 33 °F -  
Max Temperature 36 °F 34 °F 64 °F (1998)
Min Temperature 30 °F 19 °F -14 °F (1964)
Degree Days  
Heating Degree Days 32    
Moisture  
Dew Point 22 °F    
Average Humidity 63    
Maximum Humidity 72    
Minimum Humidity 51    
Precipitation  
Precipitation 0.00 in - - ()
Sea Level Pressure  
Sea Level Pressure 29.83 in    
Wind  
Wind Speed 9 mph (WSW)    
Max Wind Speed 13 mph    
Max Gust Speed 22 mph    
Visibility 10 miles    
Events      
Averages and records for this station are not official NWS values.
T = Trace of Precipitation, MM = Missing Value Source: NWS Daily Summary

Daily Weather History Graph

Daily Weather History Graph

Search for Another Location

Airport or City:

Astronomy

Dec. 07, 2017 Rise Set
Actual Time 7:25 AM EST 4:21 PM EST
Civil Twilight 6:52 AM EST 4:54 PM EST
Nautical Twilight 6:15 AM EST 5:31 PM EST
Astronomical Twilight 5:40 AM EST 6:06 PM EST
Moon 9:10 PM EST (12/7) 10:59 AM EST (12/7)
Length of Visible Light 10h 02m
Length of Day
8h 56m
Waning Gibbous, 78% of the Moon is Illuminated
Dec 7
Waning Gibbous
Dec 10
Last Quarter
Dec 18
New
Dec 26
First Quarter
Jan 1
Full

Hourly Weather History & Observations

Time (EST) Temp. Windchill Dew Point Humidity Pressure Visibility Wind Dir Wind Speed Gust Speed Precip Events Conditions
12:15 AM 35.2 °F 27.6 °F 25.5 °F 68% 29.78 in 10.0 mi West 10.4 mph 19.6 mph N/A   Scattered Clouds
12:35 AM 35.1 °F 27.9 °F 25.0 °F 67% 29.78 in 10.0 mi West 9.2 mph 18.4 mph N/A   Scattered Clouds
12:55 AM 35.1 °F 27.4 °F 24.1 °F 64% 29.79 in 10.0 mi WSW 10.4 mph 19.6 mph N/A   Scattered Clouds
1:15 AM 34.7 °F 27.5 °F 24.3 °F 66% 29.79 in 10.0 mi West 9.2 mph 18.4 mph N/A   Mostly Cloudy
1:35 AM 34.5 °F 26.7 °F 24.3 °F 66% 29.80 in 10.0 mi West 10.4 mph - N/A   Mostly Cloudy
1:55 AM 34.0 °F 27.2 °F 23.5 °F 66% 29.81 in 10.0 mi West 8.1 mph - N/A   Mostly Cloudy
2:15 AM 33.8 °F 27.0 °F 23.5 °F 66% 29.82 in 10.0 mi WSW 8.1 mph 17.3 mph N/A   Scattered Clouds
2:35 AM 33.8 °F 27.7 °F 24.4 °F 69% 29.82 in 10.0 mi WSW 6.9 mph - N/A   Scattered Clouds
2:55 AM 33.8 °F 27.0 °F 23.7 °F 67% 29.82 in 10.0 mi WSW 8.1 mph - N/A   Mostly Cloudy
3:15 AM 33.8 °F 25.8 °F 23.2 °F 65% 29.82 in 10.0 mi West 10.4 mph 21.9 mph N/A   Overcast
3:35 AM 33.8 °F 27.0 °F 23.9 °F 67% 29.83 in 10.0 mi WSW 8.1 mph 18.4 mph N/A   Overcast
3:55 AM 33.1 °F 25.5 °F 23.0 °F 66% 29.83 in 10.0 mi WSW 9.2 mph 18.4 mph N/A   Mostly Cloudy
4:15 AM 32.0 °F 24.2 °F 23.0 °F 69% 29.84 in 10.0 mi WSW 9.2 mph 17.3 mph N/A   Scattered Clouds
4:35 AM 32.0 °F 24.8 °F 23.0 °F 69% 29.84 in 10.0 mi WSW 8.1 mph 17.3 mph N/A   Clear
4:55 AM 32.0 °F 23.0 °F 22.6 °F 68% 29.84 in 10.0 mi WSW 11.5 mph 19.6 mph N/A   Clear
5:15 AM 31.8 °F 23.9 °F 22.3 °F 68% 29.84 in 10.0 mi WSW 9.2 mph - N/A   Scattered Clouds
5:35 AM 31.3 °F 23.9 °F 22.1 °F 69% 29.84 in 10.0 mi West 8.1 mph - N/A   Scattered Clouds
5:55 AM 31.5 °F 22.9 °F 22.6 °F 70% 29.84 in 10.0 mi West 10.4 mph - N/A   Scattered Clouds
6:15 AM 31.6 °F 24.4 °F 22.6 °F 69% 29.85 in 10.0 mi WSW 8.1 mph - N/A   Mostly Cloudy
6:35 AM 31.6 °F 24.4 °F 22.5 °F 69% 29.85 in 10.0 mi WSW 8.1 mph - N/A   Mostly Cloudy
6:55 AM 31.5 °F 25.8 °F 22.5 °F 69% 29.86 in 10.0 mi WSW 5.8 mph - N/A   Scattered Clouds
7:15 AM 31.5 °F 23.5 °F 22.1 °F 68% 29.86 in 10.0 mi WSW 9.2 mph - N/A   Scattered Clouds
7:35 AM 31.1 °F 24.5 °F 22.1 °F 69% 29.86 in 10.0 mi WSW 6.9 mph - N/A   Scattered Clouds
7:55 AM 31.1 °F 24.5 °F 22.5 °F 70% 29.86 in 10.0 mi WSW 6.9 mph - N/A   Scattered Clouds
8:15 AM 31.1 °F 23.7 °F 22.6 °F 71% 29.86 in 10.0 mi SW 8.1 mph - N/A   Scattered Clouds
8:35 AM 32.0 °F 25.6 °F 22.8 °F 69% 29.87 in 10.0 mi WSW 6.9 mph - N/A   Clear
8:55 AM 33.8 °F 27.0 °F 23.2 °F 65% 29.86 in 10.0 mi SW 8.1 mph - N/A   Clear
9:15 AM 33.8 °F 28.6 °F 22.6 °F 64% 29.87 in 10.0 mi WSW 5.8 mph - N/A   Clear
9:35 AM 33.8 °F 27.0 °F 23.0 °F 65% 29.87 in 10.0 mi WSW 8.1 mph - N/A   Clear
9:55 AM 33.3 °F 27.9 °F 22.5 °F 65% 29.87 in 10.0 mi WSW 5.8 mph - N/A   Clear
10:15 AM 33.3 °F 25.7 °F 22.3 °F 64% 29.87 in 10.0 mi WSW 9.2 mph - N/A   Scattered Clouds
10:35 AM 34.7 °F 28.1 °F 21.4 °F 58% 29.86 in 10.0 mi WSW 8.1 mph - N/A   Scattered Clouds
10:55 AM 34.7 °F 26.9 °F 20.3 °F 56% 29.86 in 10.0 mi WSW 10.4 mph - N/A   Clear
11:15 AM 34.7 °F 28.1 °F 21.0 °F 57% - 10.0 mi WSW 8.1 mph - N/A   Clear
11:35 AM 34.9 °F 28.3 °F 21.0 °F 57% 29.84 in 10.0 mi WSW 8.1 mph - N/A   Clear
11:55 AM 35.2 °F 28.8 °F 19.9 °F 54% 29.84 in 10.0 mi SW 8.1 mph - N/A   Clear
12:15 PM 35.6 °F 29.9 °F 20.3 °F 54% 29.83 in 10.0 mi WSW 6.9 mph 16.1 mph N/A   Clear
12:35 PM 36.5 °F 30.3 °F 20.7 °F 53% 29.82 in 10.0 mi WSW 8.1 mph 17.3 mph N/A   Clear
12:55 PM 36.0 °F 29.6 °F 20.1 °F 53% 29.82 in 10.0 mi WSW 8.1 mph 16.1 mph N/A   Clear
1:15 PM 35.6 °F 27.5 °F 19.0 °F 51% 29.81 in 10.0 mi SW 11.5 mph 16.1 mph N/A   Clear
1:35 PM 35.8 °F 29.4 °F 19.0 °F 51% 29.81 in 10.0 mi WSW 8.1 mph 17.3 mph N/A   Clear
1:55 PM 35.8 °F 29.4 °F 19.4 °F 51% 29.80 in 10.0 mi WSW 8.1 mph - N/A   Clear
2:15 PM 35.8 °F 28.8 °F 19.2 °F 51% 29.80 in 10.0 mi WSW 9.2 mph 19.6 mph N/A   Scattered Clouds
2:35 PM 36.0 °F 28.5 °F 19.4 °F 51% 29.80 in 10.0 mi SW 10.4 mph 16.1 mph N/A   Clear
2:55 PM 35.6 °F 29.2 °F 19.4 °F 52% 29.79 in 10.0 mi WSW 8.1 mph 18.4 mph N/A   Clear
3:15 PM 35.6 °F 29.9 °F 20.1 °F 53% 29.80 in 10.0 mi SW 6.9 mph - N/A   Scattered Clouds
3:35 PM 35.6 °F 28.0 °F 20.3 °F 54% 29.80 in 10.0 mi WSW 10.4 mph 17.3 mph N/A   Scattered Clouds
3:55 PM 35.8 °F 27.8 °F 19.4 °F 51% 29.80 in 10.0 mi WSW 11.5 mph 17.3 mph N/A   Scattered Clouds
4:15 PM 34.9 °F 28.3 °F 20.3 °F 55% 29.80 in 10.0 mi SW 8.1 mph 16.1 mph N/A   Scattered Clouds
4:35 PM 33.8 °F 24.8 °F 20.5 °F 58% 29.80 in 10.0 mi SW 12.7 mph 21.9 mph N/A   Clear
4:55 PM 33.8 °F 26.4 °F 20.8 °F 59% 29.81 in 10.0 mi SW 9.2 mph 20.7 mph N/A   Scattered Clouds
5:15 PM 33.8 °F 26.4 °F 20.3 °F 58% 29.81 in 10.0 mi WSW 9.2 mph 16.1 mph N/A   Scattered Clouds
5:35 PM 33.6 °F 25.6 °F 19.9 °F 57% 29.82 in 10.0 mi WSW 10.4 mph 17.3 mph N/A   Scattered Clouds
5:55 PM 33.1 °F 26.1 °F 20.1 °F 59% 29.83 in 10.0 mi WSW 8.1 mph - N/A   Scattered Clouds
6:15 PM 32.9 °F 25.3 °F 20.3 °F 60% 29.83 in 10.0 mi WSW 9.2 mph 16.1 mph N/A   Scattered Clouds
6:35 PM 32.9 °F 26.7 °F 21.0 °F 62% 29.83 in 10.0 mi SW 6.9 mph - N/A   Clear
6:55 PM 32.9 °F 25.9 °F 22.1 °F 65% 29.83 in 10.0 mi WSW 8.1 mph - N/A   Clear
7:15 PM 32.5 °F 24.8 °F 22.3 °F 66% 29.84 in 10.0 mi WSW 9.2 mph - N/A   Clear
7:35 PM 32.7 °F 24.5 °F 22.1 °F 65% 29.84 in 10.0 mi WSW 10.4 mph 19.6 mph N/A   Clear
7:55 PM 32.2 °F 25.0 °F 22.1 °F 66% 29.84 in 10.0 mi WSW 8.1 mph - N/A   Clear
8:15 PM 32.0 °F 24.8 °F 22.1 °F 67% 29.84 in 10.0 mi WSW 8.1 mph 17.3 mph N/A   Clear
8:35 PM 32.0 °F 24.2 °F 22.1 °F 67% 29.85 in 10.0 mi WSW 9.2 mph - N/A   Clear
8:55 PM 31.5 °F 25.8 °F 22.1 °F 68% 29.86 in 10.0 mi WSW 5.8 mph - N/A   Clear
9:15 PM 31.5 °F 24.2 °F 22.1 °F 68% 29.86 in 10.0 mi WSW 8.1 mph - N/A   Clear
9:35 PM 30.9 °F 22.8 °F 22.1 °F 70% 29.86 in 10.0 mi WSW 9.2 mph - N/A   Scattered Clouds
9:55 PM 30.7 °F 23.3 °F 22.1 °F 70% 29.86 in 10.0 mi WSW 8.1 mph - N/A   Scattered Clouds
10:15 PM 30.6 °F 23.1 °F 22.5 °F 72% 29.86 in 10.0 mi WSW 8.1 mph - N/A   Clear
10:35 PM 31.1 °F 25.4 °F 22.5 °F 70% 29.86 in 10.0 mi SW 5.8 mph - N/A   Clear
10:55 PM 31.1 °F 24.5 °F 22.6 °F 71% 29.87 in 10.0 mi SW 6.9 mph - N/A   Scattered Clouds
11:15 PM 31.1 °F 23.1 °F 22.6 °F 71% 29.87 in 10.0 mi WSW 9.2 mph - N/A   Scattered Clouds
11:35 PM 30.9 °F 23.5 °F 22.6 °F 71% 29.88 in 10.0 mi WSW 8.1 mph - N/A   Scattered Clouds
11:55 PM 30.4 °F 22.2 °F 22.3 °F 72% 29.87 in 10.0 mi WSW 9.2 mph 16.1 mph N/A   Scattered Clouds